Date String (YYYY-MM-DD hh:mm:ss) UTC,Instrument flags,Ambient pressure (hPa),Sample flow (lpm),Bypass flow (lpm),Sample temperature (°C),Ambient temperature (°C),ASC tube jacket temperature (°C),LED temperature (°C),Box temperature (°C),Sample RH (%),Span deviation,Mass concentration (μg/m³),Mass concentration (μg/m³),Mass concentration (μg/m³)
DateTimeUTC,F1_M11,P_M11,Q1_M11,Q2_M11,T1_M11,T2_M11,T3_M11,T4_M11,T5_M11,U1_M11,ZSPAN_M11,X0_M11,X2_M11,X1_M11
2021-11-04 00:00:00,,0830.9,5.01,0.00,29.4,28.7,00.0,38.4,31.2,14.3,0000.0,0008.64,0004.03,0003.75
2021-11-04 00:01:00,,0830.9,4.99,0.00,29.4,28.7,00.0,38.4,31.2,14.3,0000.0,0008.57,0004.05,0003.76
2021-11-04 00:02:00,,0830.9,5.01,0.00,29.5,28.8,00.0,38.4,31.3,14.2,0000.0,0007.65,0004.06,0003.77
2021-11-04 00:03:00,,0830.9,5.00,0.00,29.5,28.7,00.0,38.4,31.3,14.2,0000.0,0007.72,0004.09,0003.78
2021-11-04 00:04:00,,0830.9,4.99,0.00,29.5,28.7,00.0,38.4,31.2,14.2,0000.0,0007.89,0004.12,0003.79
2021-11-04 00:05:00,,0830.9,5.00,0.00,29.5,28.7,00.0,38.4,31.3,14.2,0000.0,0008.83,0004.17,0003.81
2021-11-04 00:06:00,,0830.9,5.00,0.00,29.5,28.7,00.0,38.4,31.3,14.2,0000.0,0009.04,0004.22,0003.83
2021-11-04 00:07:00,,0830.9,5.00,0.00,29.5,28.7,00.0,38.4,31.3,14.2,0000.0,0009.07,0004.25,0003.84
2021-11-04 00:08:00,,0831.0,5.00,0.00,29.5,28.7,00.0,38.4,31.3,14.2,0000.0,0009.39,0004.28,0003.84
2021-11-04 00:09:00,,0831.0,5.00,0.00,29.5,28.7,00.0,38.5,31.3,14.2,0000.0,0010.08,0004.26,0003.85
2021-11-04 00:10:00,,0831.0,5.00,0.00,29.5,28.8,00.0,38.5,31.3,14.2,0000.0,0009.60,0004.23,0003.85
2021-11-04 00:11:00,,0831.0,4.99,0.00,29.5,28.8,00.0,38.5,31.3,14.2,0000.0,0009.56,0004.24,0003.86
2021-11-04 00:12:00,,0831.0,4.99,0.00,29.5,28.8,00.0,38.5,31.3,14.2,0000.0,0010.17,0004.24,0003.88
2021-11-04 00:13:00,,0831.0,5.00,0.00,29.5,28.8,00.0,38.5,31.3,14.2,0000.0,0011.10,0004.28,0003.88
2021-11-04 00:14:00,,0831.1,5.01,0.00,29.5,28.8,00.0,38.5,31.3,14.2,0000.6,0010.84,0004.29,0003.89
2021-11-04 00:15:00,,0831.0,5.00,0.00,29.5,28.8,00.0,38.5,31.3,14.1,0000.4,0010.71,0004.29,0003.90
2021-11-04 00:16:00,,0831.1,5.00,0.00,29.5,28.8,00.0,38.5,31.3,14.1,0000.7,0009.79,0004.27,0003.91
2021-11-04 00:17:00,,0831.1,5.00,0.00,29.5,28.8,00.0,38.5,31.3,14.1,0001.0,0009.56,0004.27,0003.92
2021-11-04 00:18:00,,0831.0,5.01,0.00,29.5,28.8,00.0,38.5,31.3,14.1,0001.3,0009.62,0004.32,0003.93
2021-11-04 00:19:00,,0831.0,5.01,0.00,29.6,28.8,00.0,38.5,31.3,14.1,0001.0,0009.37,0004.29,0003.94
2021-11-04 00:20:00,,0831.0,4.99,0.00,29.6,28.8,00.0,38.5,31.4,14.1,-000.5,0008.87,0004.30,0003.96
2021-11-04 00:21:00,,0831.0,5.01,0.00,29.6,28.8,00.0,38.5,31.4,14.1,-001.2,0009.24,0004.34,0003.98
2021-11-04 00:22:00,,0831.0,5.01,0.00,29.6,28.8,00.0,38.5,31.4,14.1,-001.4,0009.29,0004.38,0004.01
2021-11-04 00:23:00,,0831.0,4.99,0.00,29.6,28.8,00.0,38.5,31.4,14.1,-001.0,0009.23,0004.42,0004.03
2021-11-04 00:24:00,,0831.0,5.00,0.00,29.6,28.8,00.0,38.5,31.4,14.1,-001.8,0008.58,0004.41,0004.04
2021-11-04 00:25:00,,0831.0,5.01,0.00,29.6,28.8,00.0,38.6,31.4,14.1,-001.7,0008.46,0004.41,0004.06
2021-11-04 00:26:00,,0831.0,5.00,0.00,29.6,28.8,00.0,38.6,31.4,14.1,-002.4,0009.46,0004.46,0004.08
2021-11-04 00:27:00,,0831.0,5.01,0.00,29.6,28.8,00.0,38.6,31.4,14.1,-003.1,0009.67,0004.50,0004.08
2021-11-04 00:28:00,,0831.1,4.99,0.00,29.6,28.8,00.0,38.6,31.4,14.2,-002.9,0010.36,0004.51,0004.10
2021-11-04 00:29:00,,0831.2,5.01,0.00,29.6,28.8,00.0,38.6,31.3,14.2,-002.8,0011.49,0004.50,0004.12
2021-11-04 00:30:00,,0831.2,4.98,0.00,29.6,28.8,00.0,38.6,31.4,14.2,-002.1,0012.10,0004.53,0004.15
2021-11-04 00:31:00,,0831.2,5.01,0.00,29.6,28.8,00.0,38.6,31.4,14.2,-000.5,0012.05,0004.54,0004.16
2021-11-04 00:32:00,,0831.2,4.99,0.00,29.6,28.8,00.0,38.6,31.4,14.2,0001.2,0011.67,0004.56,0004.16
2021-11-04 00:33:00,,0831.2,4.99,0.00,29.6,28.8,00.0,38.6,31.3,14.2,0000.7,0011.82,0004.57,0004.16
2021-11-04 00:34:00,,0831.2,4.99,0.00,29.6,28.8,00.0,38.6,31.3,14.2,0000.6,0011.68,0004.59,0004.17
2021-11-04 00:35:00,,0831.2,5.01,0.00,29.6,28.8,00.0,38.6,31.3,14.2,0000.9,0011.31,0004.59,0004.19
2021-11-04 00:36:00,,0831.2,5.00,0.00,29.6,28.7,00.0,38.6,31.3,14.1,0001.2,0011.95,0004.63,0004.21
2021-11-04 00:37:00,,0831.2,5.00,0.00,29.6,28.7,00.0,38.6,31.3,14.1,0002.8,0011.56,0004.64,0004.22
2021-11-04 00:38:00,,0831.2,5.00,0.00,29.6,28.8,00.0,38.6,31.3,14.1,0003.2,0011.19,0004.61,0004.22
2021-11-04 00:39:00,,0831.2,5.00,0.00,29.6,28.7,00.0,38.6,31.3,14.1,0002.5,0011.03,0004.63,0004.23
2021-11-04 00:40:00,,0831.2,5.01,0.00,29.6,28.7,00.0,38.6,31.3,14.1,0002.5,0010.64,0004.62,0004.23
2021-11-04 00:41:00,,0831.2,5.00,0.00,29.6,28.7,00.0,38.6,31.3,14.1,0002.4,0010.50,0004.62,0004.22
2021-11-04 00:42:00,,0831.2,5.00,0.00,29.6,28.7,00.0,38.6,31.3,14.2,0002.9,0010.62,0004.64,0004.21
2021-11-04 00:43:00,,0831.1,5.01,0.00,29.6,28.7,00.0,38.6,31.3,14.3,0001.7,0011.39,0004.65,0004.21
2021-11-04 00:44:00,,0831.2,5.00,0.00,29.6,28.7,00.0,38.6,31.3,14.2,0002.3,0011.71,0004.64,0004.20
2021-11-04 00:45:00,,0831.2,5.00,0.00,29.5,28.7,00.0,38.6,31.3,14.2,0002.8,0012.50,0004.64,0004.21
2021-11-04 00:46:00,,0831.2,5.01,0.00,29.5,28.7,00.0,38.6,31.3,14.2,0003.2,0012.65,0004.62,0004.20
2021-11-04 00:47:00,,0831.2,5.00,0.00,29.5,28.7,00.0,38.6,31.3,14.2,0003.5,0012.46,0004.59,0004.19
2021-11-04 00:48:00,,0831.2,5.00,0.00,29.5,28.7,00.0,38.6,31.3,14.3,0002.9,0011.90,0004.56,0004.17
2021-11-04 00:49:00,,0831.2,5.00,0.00,29.5,28.7,00.0,38.6,31.3,14.4,0002.7,0011.92,0004.53,0004.14
2021-11-04 00:50:00,,0831.2,5.00,0.00,29.5,28.7,00.0,38.6,31.3,14.3,0003.1,0011.83,0004.47,0004.11
2021-11-04 00:51:00,,0831.2,5.01,0.00,29.5,28.7,00.0,38.6,31.2,14.7,0003.1,0011.10,0004.43,0004.07
2021-11-04 00:52:00,,0831.2,5.00,0.00,29.5,28.7,00.0,38.6,31.2,14.8,0003.1,0010.56,0004.39,0004.03
2021-11-04 00:53:00,,0831.2,4.99,0.00,29.5,28.7,00.0,38.6,31.2,14.9,0000.7,0010.37,0004.29,0003.98
2021-11-04 00:54:00,,0831.2,5.00,0.00,29.5,28.7,00.0,38.6,31.2,14.9,0000.0,0009.71,0004.24,0003.92
2021-11-04 00:55:00,,0831.2,4.99,0.00,29.5,28.7,00.0,38.6,31.2,14.8,0000.0,0009.38,0004.20,0003.88
2021-11-04 00:56:00,,0831.2,5.01,0.00,29.5,28.6,00.0,38.6,31.2,14.8,0000.0,0008.43,0004.12,0003.83
2021-11-04 00:57:00,,0831.2,4.97,0.00,29.5,28.6,00.0,38.5,31.2,14.7,0000.0,0008.37,0004.08,0003.77
2021-11-04 00:58:00,,0831.1,5.01,0.00,29.5,28.6,00.0,38.5,31.2,14.8,0000.0,0008.27,0004.06,0003.74
2021-11-04 00:59:00,,0831.2,5.00,0.00,29.5,28.6,00.0,38.5,31.2,14.8,0000.0,0008.09,0004.02,0003.72
